Regional Weather Roundup
Issued by NWS

Home | Current Version | Previous Version | Graphics & Text | Print | Product List | Glossary On
Versions: 1 2 3 4 5 6 7 8 9 10 11 12 13 14 15 16 17 18 19 20 21 22 23 24 25 26 27 28 29 30 31 32 33 34 35 36 37 38 39 40 41 42 43 44 45 46 47 48 49 50
368
ASUS45 KBOU 130207
RWRCO

WEATHER ROUNDUP FOR COLORADO
NATIONAL WEATHER SERVICE DENVER/BOULDER CO
700 PM MST FRI FEB 12 2016

NOTE: "FAIR" INDICATES FEW OR NO CLOUDS BELOW 12000 FEET WITH NO
SIGNIFICANT WEATHER AND/OR OBSTRUCTIONS TO VISIBILITY.

COZ001>005-013-030-031-130300-
...NORTHWEST COLORADO...

CITY           SKY/WX    TMP DP  RH WIND       PRES   REMARKS
CRAIG          FAIR      21  16  81 SW3       30.33S
HAYDEN         FAIR      30  18  59 SE5       30.33S WCI  25
MEEKER         FAIR      31  23  72 CALM      30.32R
MOUNT WERNER   NOT AVBL
STEAMBOAT SPGS FAIR      29  22  75 CALM      30.34F
WALDEN         FAIR      37  23  56 S13       30.34S
$$

COZ006>008-011-130300-
...WEST CENTRAL VALLEYS...

CITY           SKY/WX    TMP DP  RH WIND       PRES   REMARKS
GRAND JUNCTION FAIR      35  30  82 CALM      30.33S
MONTROSE       FAIR      39  26  59 E5        30.36R
EAGLE          CLEAR     37  28  70 CALM      30.37R
RIFLE          FAIR      36  23  59 CALM      30.34R
DELTA          FAIR      41  32  69 CALM      30.34S
NUCLA          FAIR      50  25  37 CALM      30.37S
$$

COZ017>023-064>068-130300-
...SOUTHWEST COLORADO...

CITY           SKY/WX    TMP DP  RH WIND       PRES   REMARKS
DURANGO        FAIR      37  24  59 N6        30.36S
CORTEZ         FAIR      34  26  72 E8        30.34S WCI  27
PAGOSA SPRINGS FAIR      38  23  54 CALM      30.40S
TELLURIDE      FAIR      40  22  48 SE7       30.46S
WOLF CREEK PAS FAIR      32  16  51 SW10      30.58S WCI  24
$$

COZ009-010-012-014-032>034-037-058>063-130300-
...CENTRAL COLORADO...

CITY           SKY/WX    TMP DP  RH WIND       PRES   REMARKS
ASPEN          FAIR      35  23  61 S9        30.38S WCI  28
BUENA VISTA    FAIR      42  23  47 CALM      30.35R
COPPER MTN     FAIR      34  16  47 W12G18    30.51R WCI  25
BERTHOUD PASS  FAIR      27  16  63 MISG      30.46S
COTTONWOOD PAS FAIR      45  14  29 W8        30.42R
GUNNISON       FAIR      12   7  79 NE5       30.48S WCI   4
KREMMLING      FAIR      14  10  85 CALM      30.41R
LEADVILLE      FAIR      36  16  44 NW3       30.42S
MONARCH PASS   FAIR      32  18  55 W21       30.62F WCI  20
SALIDA         NOT AVBL
SUNLIGHT       FAIR      32  21  64 CALM      30.51S
WILKERSON PASS FAIR      34  19  55 SW8       30.49S WCI  27
$$

COZ069>075-130300-
...SAN LUIS VALLEY/SANGRE DE CRISTO MOUNTAINS...

CITY           SKY/WX    TMP DP  RH WIND       PRES   REMARKS
ALAMOSA        FAIR      39  23  52 N6        30.37R
LA VETA PASS   FAIR      37  21  52 S8        30.45S
SAGUACHE       FAIR      34  23  64 N10       30.40S WCI  26
$$

COZ035-036-038>040-130300-
...NORTHERN COLORADO FRONT RANGE...

CITY           SKY/WX    TMP DP  RH WIND       PRES   REMARKS
DENVER INTL AP FAIR      36  31  82 NE8       30.25R
DMNS CITY PARK   N/A     42  32  69 N2        30.26S
AURORA         PTCLDY    38  33  81 E6        30.26R
FRONT RANGE AP PTCLDY    34  30  86 N5        30.26S WCI  30
ERIE MUNI ARPT FAIR      38  33  82 CALM      30.26S
BOULDER MUN AP FAIR      41  32  70 NW3       30.26S
CENTENNIAL     FAIR      42  34  73 N3        30.26R
BROOMFIELD     PTCLDY    41  32  70 N5        30.27R
FORT COLLINS   FAIR      36  28  75 SE7       30.28S
LONGMONT       FAIR      39  32  75 CALM      30.29R
$$

COZ041-046-047-076>085-087-088-130300-
...PIKES PEAK/PALMER DIVIDE AND SOUTHERN FOOTHILLS...

CITY           SKY/WX    TMP DP  RH WIND       PRES   REMARKS
COLO. SPRINGS  FAIR      45  28  51 E8        30.29R
A. F. ACADEMY  FAIR      44  29  55 SE7       30.28R
SCHRIEVER AFB  FAIR      43  28  54 NE3       30.29R
ELLICOTT       FAIR     N/A N/A N/A SE7       30.27S
FALCON         FAIR      38  27  64 S5        30.30S
FORT CARSON    FAIR      48  30  50 SW1       30.26S
LIMON          FAIR      36  29  75 SE10      30.28R
MONUMENT HILL  FAIR      37  30  75 S14       30.29S
TRINIDAD       FAIR      49  20  31 SW8       30.25S
$$

COZ042>045-048>051-090-091-130300-
...NORTHEAST COLORADO...

CITY           SKY/WX    TMP DP  RH WIND       PRES   REMARKS
GREELEY ARPT   FAIR      36  30  80 E10       30.28R
AKRON          FOG       30  30 100 SE22      30.28S VSB 1/4 WCI  17
BURLINGTON     CLOUDY    31  29  92 SE15      30.33R FOG     WCI  20
WRAY           CLOUDY    32  32 100 MISG      30.36R
STERLING       CLOUDY    32  32 100 SE9       30.32R WCI  24
HOLYOKE        CLOUDY    34  30  86 SE10      30.35S WCI  26
FORT MORGAN    CLOUDY    33  31  94 E13       30.29S WCI  24
$$

COZ086-089-092>099-130300-
...SOUTHEAST COLORADO...

CITY           SKY/WX    TMP DP  RH WIND       PRES   REMARKS
PUEBLO         FAIR      50  31  48 N12       30.21S
LA JUNTA       FAIR      52  29  41 E13       30.19R
LAMAR          FAIR      40  30  67 E18G24    30.27R
SPRINGFIELD      N/A     45  25  45 S15       30.28S
$$




USA.gov is the U.S. government's official web portal to all federal, state and local government web resources and services.